Location: Bonham
(33.5773°N, 96.1783°W)
Time: 16:10:46
(UTC+00:00)

Chandra Rocket (1) - Pass Details

Date: 26 November 2025
Orbit: 253 x 10534 km, 28.5° (Epoch: 12 December)

Event Time Altitude Azimuth Distance (km) Brightness Sun altitude
Exits shadow 11:59:33 10° 242° (WSW) 2,343 4.6 -13.9°
Reaches altitude 10° 11:59:36 10° 242° (WSW) 2,334 4.6 -13.9°
Maximum altitude 12:04:14 26° 185° (S) 2,425 5.2 -13.0°
Drops below altitude 10° 12:15:57 10° 136° (SE) 6,237 8.2 -10.7°
Sets 12:26:03 0° 128° (SE) 9,369 9.7 -8.7°
